Simultaneous Nadir Overpasses (SNOs) Predictions

Prediction of SNOs between GOES-16 and METOP-A Satellite Orbit:

Table of predicted SNOs for the next 14.0 days since TLE Epoch: 2/6/2021
Index Date Time (GOES-16) GOES-16 Lat,Lon METOP-A Lat,Lon Distance(km) Time Diff (sec)
1 02/07/2021 13:20:18 0.00, -75.20 0.06, -75.40 22.96 80
2 02/10/2021 01:21:19 -0.00, -75.16 0.03, -75.06 11.99 80
3 02/12/2021 13:16:51 -0.00, -75.19 -0.09, -74.67 58.61 80
4 02/14/2021 01:38:31 0.00, -75.17 -0.92, -79.31 471.66 80
5 02/15/2021 01:15:12 0.00, -75.18 0.19, -74.33 96.23 80
6 02/16/2021 13:34:04 -0.00, -75.22 0.81, -78.94 423.02 80
7 02/17/2021 13:13:24 -0.00, -75.23 -0.30, -73.96 145.25 80
8 02/19/2021 01:35:04 0.00, -75.22 -0.76, -78.59 383.89 80
9 02/20/2021 01:11:44 0.00, -75.24 0.35, -73.61 184.53 80
